Location: Newark
(30.1000°N, 109.4667°E)
Time: 12:44:37
(UTC+00:00)

Tiros 1 despin weight - Visible Passes

Search period start: 28 February 2020 00:00
Search period end: 09 March 2020 00:00
Orbit: 594 x 642 km, 48.2° (Epoch: 27 February)

Date Brightness Start Highest point End Pass type
(mag) Time Alt. Az. Time Alt. Az. Time Alt. Az.
28 Feb ? 21:43:42 45° WNW 21:44:51 65° SW 21:49:13 10° SE visible
29 Feb ? 11:45:41 10° SSE 11:46:38 12° SE 11:46:38 12° SE visible
29 Feb ? 20:23:12 14° E 20:23:12 14° E 20:23:54 10° ESE visible
29 Feb ? 22:00:19 26° WSW 22:01:14 28° SW 22:04:59 10° S visible
01 Mar ? 11:59:54 10° S 12:03:32 28° SE 12:03:32 28° SE visible
01 Mar ? 20:39:55 16° SE 20:39:55 16° SE 20:40:51 10° SE visible
01 Mar ? 22:17:03 12° WSW 22:17:30 12° SW 22:19:08 10° SSW visible
02 Mar ? 12:15:41 10° SW 12:20:13 65° SE 12:20:22 64° ESE visible
02 Mar ? 20:56:46 12° SSE 20:56:46 12° SSE 20:57:06 10° SSE visible
03 Mar ? 12:32:13 10° WSW 12:36:44 58° NW 12:37:07 56° NNW visible
04 Mar ? 11:07:31 10° SSW 11:11:49 40° SE 11:16:05 10° ENE visible
04 Mar ? 12:49:23 10° W 12:53:25 30° NNW 12:53:45 30° NNW visible
05 Mar ? 11:23:39 10° SW 11:28:16 90° SE 11:32:50 10° NE visible
05 Mar ? 13:07:10 10° WNW 13:10:15 18° NNW 13:10:15 18° NNW visible
06 Mar ? 11:40:27 10° WSW 11:44:51 43° NW 11:49:12 10° NE visible
06 Mar ? 13:25:41 10° NW 13:26:36 11° NNW 13:26:36 11° NNW visible
07 Mar ? 11:57:53 10° W 12:01:36 24° NNW 12:05:18 10° NNE visible
08 Mar ? 12:15:54 10° WNW 12:18:32 15° NNW 12:21:10 10° NNE visible
